Terminal Aerodrome Forecast
Issued by NWS State College, PA

Home | Current Version | Previous Version | Text Only | Print | Product List | Glossary On
Versions: 1 2 3 4 5 6 7 8 9 10 11 12 13 14 15 16 17 18 19 20 21 22 23 24 25 26 27 28 29 30 31 32 33 34 35 36 37 38 39 40 41 42 43 44 45 46 47
000
FTUS41 KCTP 011140
TAFIPT
TAF
KIPT 011140Z 0112/0212 00000KT 1 1/2SM -SN OVC020
     FM011300 09004KT 1SM -SN OVC015
     FM011400 09003KT 1/2SM -SN FG OVC007
     FM012200 09006KT 3/4SM -SN BR OVC007
     FM020300 21006KT 1 1/2SM -SHSN BR OVC012
     FM020600 29008KT 5SM -SHSN BR OVC020=

USA.gov is the U.S. government's official web portal to all federal, state and local government web resources and services.